Hourly Data Report for September 20, 2017

All times are specified in Local Standard Time (LST). Add 1 hour to adjust for Daylight Saving Time where and when it is observed.

CHARLOTTETOWN A
PRINCE EDWARD ISLAND

46°17'21.000" N
63°07'09.000" W
48.50 m
8300301
71706
YYG

Download Data

Hourly Data (September 2017)
Hourly Data Report for September 20, 2017
Temp Definition
°C
Dew Point Temp Definition
°C
Rel Hum Definition
%
Wind Dir Definition
10's deg

Wind Spd Definition
km/h
Visibility Definition
km
Stn Press Definition
kPa
Hmdx Definition


Wind Chill Definition


Weather Definition


TIME
00:00 Legend Double Dagger 19.3 18.5 95 16 12 12.9 101.56     LegendNANA
01:00 Legend Double Dagger 19.5 18.9 96 17 16 24.1 101.53     LegendNANA
02:00 Legend Double Dagger 19.3 18.7 97 17 14 12.9 101.47     Cloudy
03:00 Legend Double Dagger 19.4 18.9 97 17 15 24.1 101.42     LegendNANA
04:00 Legend Double Dagger 19.3 18.8 97 17 16 16.1 101.38     LegendNANA
05:00 Legend Double Dagger 19.2 18.6 96 17 16 16.1 101.36     Cloudy
06:00 Legend Double Dagger 19.1 18.4 96 17 15 9.7 101.35     Fog
07:00 Legend Double Dagger 19.2 18.4 95 17 13 12.9 101.35     LegendNANA
08:00 Legend Double Dagger 19.4 18.5 94 17 13 16.1 101.32     Cloudy
09:00 Legend Double Dagger 20.1 18.8 92 16 10 19.3 101.29 27   LegendNANA
10:00 Legend Double Dagger 20.6 18.7 88 18 10 19.3 101.27 27   LegendNANA
11:00 Legend Double Dagger 20.5 18.6 89 15 7 24.1 101.22 27   Mostly Cloudy
12:00 Legend Double Dagger 21.1 18.9 87 16 7 24.1 101.16 28   LegendNANA
13:00 Legend Double Dagger 22.3 19.1 82 36 2 24.1 101.08 29   LegendNANA
14:00 Legend Double Dagger 23.3 19.2 77 14 4 24.1 101.01 30   Cloudy
15:00 Legend Double Dagger 23.5 19.4 78 13 4 24.1 100.97 31   LegendNANA
16:00 Legend Double Dagger 21.4 18.9 85 1 21 24.1 100.97 28   LegendNANA
17:00 Legend Double Dagger 20.6 18.6 88 1 17 24.1 100.99 27   Cloudy
18:00 Legend Double Dagger 17.8 16.9 95 2 17 2.4 101.03     Fog
19:00 Legend Double Dagger 17.4 16.7 96 1 13 9.7 101.04     Fog
20:00 Legend Double Dagger 16.8 16.1 96 2 13 9.7 101.04     Fog
21:00 Legend Double Dagger 16.5 15.7 95 2 14 19.3 101.09     LegendNANA
22:00 Legend Double Dagger 16.4 15.7 95 2 15 24.1 101.12     LegendNANA
23:00 Legend Double Dagger 15.6 14.8 95 1 20 24.1 101.16     Cloudy

Notes on Data Quality.

Legend

  • E = Estimated
  • M = Missing
  • NA = Not Available
  • ‡ = Partner data that is not subject to review by the National Climate Archives
Date modified: